Latrobe, PA

7:05 PM EDT on August 24, 2019 (GMT -0400)
Arnold Palmer Regional

Weather History for KLBE - May, 2019

Change the Weather History Date:

Monday, May 13, 2019

  Actual Average Record
Temperature  
Mean Temperature 52 °F -  
Max Temperature 57 °F 70 °F 86 °F (2014)
Min Temperature 46 °F 47 °F 33 °F (2013)
Degree Days  
Heating Degree Days 14    
Growing Degree Days 2 (Base 50)    
Moisture  
Dew Point 50 °F    
Average Humidity 98    
Maximum Humidity 100    
Minimum Humidity 77    
Precipitation  
Precipitation 0.00 in - - ()
Sea Level Pressure  
Sea Level Pressure 29.76 in    
Wind  
Wind Speed 5 mph (SW)    
Max Wind Speed 17 mph    
Max Gust Speed 16 mph    
Visibility 7 miles    
Events Rain    
Averages and records for this station are not official NWS values.
T = Trace of Precipitation, MM = Missing Value Source: NWS Daily Summary

Daily Weather History Graph

Daily Weather History Graph

Search for Another Location

Airport or City:

Astronomy

May. 13, 2019 Rise Set
Actual Time 6:03 AM EDT 8:24 PM EDT
Civil Twilight 5:33 AM EDT 8:55 PM EDT
Nautical Twilight 4:55 AM EDT 9:33 PM EDT
Astronomical Twilight 4:13 AM EDT 10:15 PM EDT
Moon 2:33 PM EDT (5/13) 3:22 AM EDT (5/13)
Length of Visible Light 15h 22m
Length of Day
14h 20m
Waxing Gibbous, 68% of the Moon is Illuminated
May 13
Waxing Gibbous
May 18
Full
May 26
Last Quarter
Jun 3
New
Jun 10
First Quarter

Hourly Weather History & Observations

Time (EDT) Temp. Windchill Dew Point Humidity Pressure Visibility Wind Dir Wind Speed Gust Speed Precip Events Conditions
12:15 AM 51.8 °F - 51.8 °F 100% 29.72 in 4.0 mi Calm Calm - N/A   Light Drizzle
12:35 AM 51.8 °F - 51.8 °F 100% 29.72 in 9.0 mi SE 5.8 mph - N/A   Overcast
12:55 AM 51.8 °F - 51.8 °F 100% 29.72 in 10.0 mi Calm Calm - N/A   Overcast
1:15 AM 51.8 °F - 51.8 °F 100% 29.71 in 10.0 mi Calm Calm - N/A   Overcast
1:35 AM 51.8 °F - 51.8 °F 100% 29.71 in 10.0 mi SE 3.5 mph - N/A   Overcast
1:55 AM - - - N/A% 29.71 in 10.0 mi Calm Calm - N/A   Overcast
2:15 AM 53.6 °F - 53.6 °F 100% 29.71 in 10.0 mi Variable 4.6 mph - N/A   Overcast
2:35 AM - - - N/A% 29.70 in 4.0 mi SE 5.8 mph - N/A Rain Light Rain
3:15 AM 51.8 °F - 51.8 °F 100% 29.70 in 2.5 mi SE 6.9 mph - N/A Rain Light Rain
3:35 AM 51.8 °F - 51.8 °F 100% 29.69 in 2.5 mi SE 6.9 mph - N/A Rain Rain
3:55 AM 51.8 °F - 51.8 °F 100% 29.70 in 10.0 mi SSE 6.9 mph - N/A   Light Drizzle
4:15 AM 51.8 °F - 51.8 °F 100% 29.69 in 10.0 mi SE 9.2 mph - N/A   Overcast
4:35 AM 51.8 °F - 51.8 °F 100% 29.69 in 10.0 mi SE 9.2 mph - N/A   Overcast
4:55 AM 50.0 °F - 50.0 °F 100% 29.70 in 3.0 mi SE 6.9 mph - N/A Rain Rain
5:15 AM 50.0 °F - 50.0 °F 100% 29.70 in 3.0 mi Calm Calm - N/A Rain Light Rain
5:35 AM 50.0 °F - 50.0 °F 100% 29.70 in 7.0 mi Calm Calm - N/A Rain Light Rain
5:55 AM 50.0 °F - 50.0 °F 100% 29.70 in 4.0 mi Calm Calm - N/A Rain Light Rain
6:53 AM 51.8 °F - 51.8 °F 100% 29.71 in 6.0 mi SSE 4.6 mph - N/A   Light Drizzle
7:53 AM 51.8 °F - 51.8 °F 100% 29.72 in 10.0 mi Calm Calm - N/A   Overcast
8:53 AM 53.6 °F - 53.6 °F 100% 29.73 in 3.0 mi SSW 9.2 mph - N/A   Overcast
9:53 AM 51.8 °F - 51.8 °F 100% 29.73 in 3.0 mi SSW 9.2 mph - N/A   Light Drizzle
10:53 AM 53.6 °F - 53.6 °F 100% 29.74 in 8.0 mi SSW 9.2 mph - N/A   Overcast
11:53 AM - - - N/A% 29.75 in 10.0 mi WSW 17.3 mph - N/A   Overcast
12:50 PM 57.2 °F - 53.6 °F 88% 29.74 in 6.0 mi SW 16.1 mph - N/A Rain Light Rain
1:50 PM 57.2 °F - 50.0 °F 77% 29.73 in 5.0 mi SW 16.1 mph - N/A Rain Light Rain
2:50 PM 51.8 °F - 50.0 °F 94% 29.74 in 3.0 mi WSW 15.0 mph - N/A Rain Light Rain
3:45 PM 53.6 °F - 53.6 °F 100% 29.75 in 6.0 mi SW 11.5 mph - N/A Rain Light Rain
4:45 PM 51.8 °F - 51.8 °F 100% 29.75 in 5.0 mi WSW 16.1 mph - N/A Rain Light Rain
5:59 PM 51.8 °F - 48.2 °F 88% 29.79 in 10.0 mi WSW 11.5 mph - N/A   Overcast
6:48 PM 51.8 °F - 48.2 °F 88% 29.80 in 10.0 mi West 17.3 mph - N/A   Mostly Cloudy
7:45 PM 50.0 °F - 48.2 °F 94% 29.82 in 8.0 mi West 9.2 mph - N/A   Mostly Cloudy
8:45 PM 48.2 °F - 48.2 °F 100% 29.85 in 8.0 mi West 8.1 mph - N/A   Mostly Cloudy
9:45 PM 48.2 °F - 48.2 °F 100% 29.87 in 7.0 mi WNW 8.1 mph - N/A   Mostly Cloudy
10:15 PM 46.4 °F 42.4 °F 46.4 °F 100% 29.89 in 10.0 mi WNW 8.1 mph 16.1 mph N/A   Light Drizzle
10:35 PM 46.4 °F 44.3 °F 46.4 °F 100% 29.89 in 10.0 mi West 4.6 mph - N/A   Overcast
10:55 PM 46.4 °F 44.3 °F 46.4 °F 100% 29.89 in 10.0 mi West 4.6 mph - N/A   Overcast
11:15 PM 46.4 °F 45.2 °F 46.4 °F 100% 29.89 in 10.0 mi West 3.5 mph - N/A   Overcast
11:35 PM 46.4 °F - 46.4 °F 100% 29.89 in 10.0 mi Calm Calm - N/A   Overcast
11:55 PM 46.4 °F 44.3 °F 46.4 °F 100% 29.89 in 10.0 mi West 4.6 mph - N/A   Overcast